OK2JCZ-6 Weather Reports


time (UTC)temp
F
wind
direction
speed
knots
gust
knots
rain 1hr
in
rain 24hr
in
rain mn
in
humidity
%
barometer
mb
20260507204207 51 322 5.2 6.1 0.00 0.00 0.00 54 1014.3
20260507203207 51 328 3.5 5.2 0.00 0.00 0.00 53 1014.2
20260507202707 51 326 3.5 4.3 0.00 0.00 0.00 52 1014.2
20260507202207 51 326 2.6 3.5 0.00 0.00 0.00 51 1014.1
20260507201707 51 326 3.5 4.3 0.00 0.00 0.00 51 1014.0
20260507200707 52 326 3.5 3.5 0.00 0.00 0.00 50 1013.9
20260507195207 53 326 3.5 4.3 0.00 0.00 0.00 48 1013.6
20260507194707 53 317 5.2 6.1 0.00 0.00 0.00 48 1013.5
20260507194208 53 311 6.1 7.8 0.00 0.00 0.00 48 1013.4
20260507193707 53 317 5.2 8.7 0.00 0.00 0.00 48 1013.3
20260507193207 53 312 7.0 8.7 0.00 0.00 0.00 47 1013.3
20260507192707 53 308 5.2 7.0 0.00 0.00 0.00 47 1013.3
20260507192207 53 293 4.3 5.2 0.00 0.00 0.00 46 1013.2
20260507191707 53 293 4.3 5.2 0.00 0.00 0.00 46 1013.1
20260507191208 53 292 4.3 4.3 0.00 0.00 0.00 46 1013.1
20260507190707 53 292 4.3 5.2 0.00 0.00 0.00 46 1013.1
20260507190207 53 291 3.5 4.3 0.00 0.00 0.00 46 1013.0
20260507185707 53 288 4.3 5.2 0.00 0.00 0.00 45 1013.0
20260507185207 53 287 3.5 3.5 0.00 0.00 0.00 45 1012.9
20260507184707 53 287 3.5 3.5 0.00 0.00 0.00 45 1012.9
20260507184207 54 287 3.5 3.5 0.00 0.00 0.00 45 1012.8
20260507183707 54 287 1.7 1.7 0.00 0.00 0.00 45 1012.7
20260507183207 55 304 0.9 1.7 0.00 0.00 0.00 44 1012.6
20260507182707 55 304 0.0 0.0 0.00 0.00 0.00 44 1012.4
20260507182207 56 304 0.0 0.0 0.00 0.00 0.00 43 1012.3
20260507181707 56 304 0.0 0.9 0.00 0.00 0.00 42 1012.2
20260507181207 57 304 1.7 1.7 0.00 0.00 0.00 42 1012.1
20260507180709 57 304 1.7 2.6 0.00 0.00 0.00 42 1012.1
20260507180207 58 304 2.6 2.6 0.00 0.00 0.00 42 1012.0
20260507175707 58 304 3.5 3.5 0.00 0.00 0.00 42 1012.0
20260507175207 58 304 2.6 2.6 0.00 0.00 0.00 42 1012.0
20260507174707 58 304 2.6 2.6 0.00 0.00 0.00 42 1011.9
20260507174207 59 304 3.5 3.5 0.00 0.00 0.00 42 1011.9
20260507173707 59 303 3.5 3.5 0.00 0.00 0.00 41 1011.9
20260507173207 59 303 4.3 5.2 0.00 0.00 0.00 41 1011.9
20260507172208 59 287 4.3 5.2 0.00 0.00 0.00 40 1011.8
20260507171207 61 297 6.1 8.7 0.00 0.00 0.00 40 1011.7
20260507170707 61 310 6.1 7.0 0.00 0.00 0.00 40 1011.7
20260507170207 61 313 7.0 8.7 0.00 0.00 0.00 40 1011.6
20260507165707 61 301 8.7 8.7 0.00 0.00 0.00 39 1011.5
20260507165208 61 302 7.0 8.7 0.00 0.00 0.00 39 1011.5
20260507163707 61 287 7.0 7.8 0.00 0.00 0.00 40 1011.4
20260507163207 61 309 5.2 6.1 0.00 0.00 0.00 40 1011.4
20260507162707 61 292 6.1 7.0 0.00 0.00 0.00 40 1011.4
20260507160207 63 308 6.1 7.8 0.00 0.00 0.00 38 1011.3
20260507155707 63 301 6.1 7.8 0.00 0.00 0.00 38 1011.3
20260507155207 64 289 5.2 8.7 0.00 0.00 0.00 38 1011.3
20260507154707 64 276 7.0 7.8 0.00 0.00 0.00 37 1011.3
20260507154207 65 288 7.0 11.3 0.00 0.00 0.00 36 1011.2
20260507152212 67 249 5.2 7.0 0.00 0.00 0.00 34 1011.1
20260507151707 67 306 4.3 6.1 0.00 0.00 0.00 35 1011.1
20260507150707 68 299 5.2 7.0 0.00 0.00 0.00 36 1011.1
20260507144707 65 284 5.2 6.1 0.00 0.00 0.00 36 1011.1
20260507144208 65 312 4.3 6.1 0.00 0.00 0.00 36 1011.1
20260507143708 65 290 6.1 7.0 0.00 0.00 0.00 36 1011.1
20260507142207 62 275 7.8 9.6 0.00 0.00 0.00 38 1011.1
20260507141707 62 295 7.8 9.6 0.00 0.00 0.00 39 1011.2
20260507141207 63 302 7.0 7.8 0.00 0.00 0.00 41 1011.3
20260507140707 63 276 7.8 9.6 0.00 0.00 0.00 38 1011.3
20260507135707 65 289 8.7 11.3 0.00 0.00 0.00 36 1011.2
20260507135207 68 269 8.7 11.3 0.00 0.00 0.00 35 1011.1
20260507134707 68 302 4.3 5.2 0.00 0.00 0.00 35 1011.1
20260507134207 69 299 6.1 7.8 0.00 0.00 0.00 34 1011.1
20260507133707 69 306 5.2 7.0 0.00 0.00 0.00 34 1011.1
20260507132707 66 292 7.8 7.8 0.00 0.00 0.00 34 1011.1
20260507132207 65 298 6.1 7.8 0.00 0.00 0.00 35 1011.1
20260507131707 65 290 5.2 7.0 0.00 0.00 0.00 37 1011.2
20260507131207 66 303 6.1 7.8 0.00 0.00 0.00 36 1011.2
20260507125707 66 279 5.2 7.0 0.00 0.00 0.00 35 1011.2
20260507125207 67 277 5.2 6.1 0.00 0.00 0.00 34 1011.1
20260507123707 66 240 2.6 6.1 0.00 0.00 0.00 34 1011.1
20260507123207 66 234 6.1 7.8 0.00 0.00 0.00 34 1011.2
20260507122207 67 210 7.8 9.6 0.00 0.00 0.00 33 1011.3
20260507121707 67 273 5.2 7.8 0.00 0.00 0.00 34 1011.3
20260507120707 67 271 6.1 9.6 0.00 0.00 0.00 34 1011.2
20260507120207 68 277 3.5 6.1 0.00 0.00 0.00 35 1011.2
20260507115207 67 279 6.1 10.4 0.00 0.00 0.00 34 1011.1
20260507114707 67 281 7.0 9.6 0.00 0.00 0.00 34 1011.2
20260507113707 68 292 7.0 8.7 0.00 0.00 0.00 35 1011.2
20260507113207 67 231 8.7 10.4 0.00 0.00 0.00 33 1011.1
20260507112707 67 180 7.0 11.3 0.00 0.00 0.00 35 1011.2
20260507112207 68 196 4.3 8.7 0.00 0.00 0.00 36 1011.3
20260507111707 68 274 6.1 7.8 0.00 0.00 0.00 37 1011.3
20260507110707 69 265 3.5 6.1 0.00 0.00 0.00 37 1011.3
20260507104707 70 222 5.2 7.0 0.00 0.00 0.00 36 1011.3
20260507104207 71 215 11.3 13.9 0.00 0.00 0.00 34 1011.2
20260507103707 71 234 8.7 11.3 0.00 0.00 0.00 33 1011.3
20260507103207 71 256 4.3 8.7 0.00 0.00 0.00 34 1011.2
20260507102207 69 235 0.9 3.5 0.00 0.00 0.00 37 1011.3
20260507100207 68 242 7.8 8.7 0.00 0.00 0.00 37 1011.3
20260507095207 68 220 7.0 11.3 0.00 0.00 0.00 37 1011.2
20260507094707 68 270 4.3 7.8 0.00 0.00 0.00 40 1011.3
20260507094207 65 245 6.1 9.6 0.00 0.00 0.00 41 1011.2
20260507093707 65 269 2.6 3.5 0.00 0.00 0.00 43 1011.2
20260507093207 66 251 4.3 5.2 0.00 0.00 0.00 43 1011.2
20260507092707 66 218 7.8 8.7 0.00 0.00 0.00 40 1011.1
20260507092207 67 199 5.2 9.6 0.00 0.00 0.00 40 1011.2
20260507090707 66 233 6.1 7.0 0.00 0.00 0.00 43 1011.1
20260507085207 63 282 3.5 5.2 0.00 0.00 0.00 47 1011.0
20260507084207 63 282 6.1 7.8 0.00 0.00 0.00 46 1010.9
20260507083207 64 243 3.5 4.3 0.00 0.00 0.00 48 1010.8
20260507082707 64 251 4.3 6.1 0.00 0.00 0.00 46 1010.7
20260507080707 61 259 5.2 7.8 0.00 0.00 0.00 50 1010.6
20260507040940 49 287 1.7 4.3 0.00 0.00 0.00 67 1008.8
20260507040443 49 288 1.7 1.7 0.00 0.00 0.00 67 1008.7
20260507035943 48 288 0.9 1.7 0.00 0.00 0.00 67 1008.8
20260507035440 48 288 0.9 1.7 0.00 0.00 0.00 68 1008.7
20260507033440 48 288 0.0 0.0 0.00 0.00 0.00 64 1008.6
20260507031940 48 288 0.0 0.0 0.00 0.00 0.00 64 1008.5
20260507025940 49 288 0.0 0.0 0.00 0.00 0.00 64 1008.2
20260507025440 50 288 0.9 1.7 0.00 0.00 0.00 64 1008.1
20260507024940 50 288 0.9 1.7 0.00 0.00 0.00 63 1008.0
20260507024440 51 288 1.7 1.7 0.00 0.00 0.00 64 1008.0
20260507021942 51 288 1.7 3.5 0.00 0.00 0.00 65 1008.1
20260507020440 51 278 2.6 3.5 0.00 0.00 0.00 65 1007.9
20260507015940 51 278 4.3 5.2 0.00 0.00 0.00 65 1007.8
20260507015440 51 278 2.6 7.0 0.00 0.00 0.00 65 1007.6
20260507013940 51 286 3.5 5.2 0.00 0.00 0.00 64 1007.4
20260507013440 51 290 4.3 5.2 0.00 0.00 0.00 64 1007.5
20260507012440 52 290 3.5 5.2 0.00 0.00 0.00 64 1007.4
20260507011940 52 290 3.5 5.2 0.00 0.00 0.00 64 1007.4
20260507011440 52 291 4.3 5.2 0.00 0.00 0.00 64 1007.4
20260507010940 52 292 5.2 6.1 0.00 0.00 0.00 64 1007.3
20260507010440 52 288 5.2 7.0 0.00 0.00 0.00 65 1007.2
20260507005940 52 289 4.3 7.0 0.00 0.00 0.00 65 1007.1
20260507005440 52 284 5.2 7.8 0.00 0.00 0.00 65 1007.1
20260507004440 52 296 4.3 6.1 0.00 0.00 0.00 65 1006.9
20260507003440 52 304 6.1 8.7 0.00 0.00 0.00 66 1006.5
20260507001940 52 296 5.2 8.7 0.00 0.00 0.00 64 1006.7
20260507001440 52 293 5.2 6.1 0.00 0.00 0.00 63 1006.8
20260507000940 52 288 5.2 7.0 0.00 0.00 0.00 64 1006.8
20260507000442 52 288 5.2 7.0 0.00 0.00 0.00 64 1006.8
20260506234445 52 298 4.3 5.2 0.00 0.00 0.00 64 1006.6
20260506230940 53 330 5.2 6.1 0.00 0.00 0.00 63 1005.8
20260506224440 55 318 5.2 7.8 0.00 0.00 0.00 63 1005.3
20260506223940 55 312 7.8 9.6 0.00 0.00 0.00 63 1005.3
20260506223440 56 300 7.8 11.3 0.00 0.00 0.00 63 1005.4
20260506222940 56 309 11.3 13.0 0.00 0.00 0.00 62 1005.2
20260506222440 57 317 7.8 9.6 0.00 0.00 0.00 60 1005.0
20260506220940 57 257 1.7 2.6 0.00 0.00 0.00 55 1004.8
20260506220440 57 257 3.5 7.8 0.00 0.00 0.00 57 1004.8
20260506215940 57 164 5.2 6.1 0.00 0.00 0.00 57 1004.8
20260506215440 57 163 3.5 5.2 0.00 0.00 0.00 56 1004.8
20260506214940 57 164 6.1 8.7 0.00 0.00 0.00 57 1004.7
20260506214440 57 164 8.7 9.6 0.00 0.00 0.00 57 1004.7
20260506212440 58 136 7.0 10.4 0.00 0.00 0.00 57 1004.4
20260506211940 58 147 7.0 7.8 0.00 0.00 0.00 56 1004.4
20260506211440 58 149 6.1 7.0 0.00 0.00 0.00 55 1004.3
20260506210941 58 133 6.1 9.6 0.00 0.00 0.00 55 1004.1
20260506205940 58 128 8.7 9.6 0.00 0.00 0.00 56 1004.0
20260506205440 59 123 7.8 9.6 0.00 0.00 0.00 56 1003.9
20260506204940 59 126 7.8 10.4 0.00 0.00 0.00 56 1003.9